Flag for Brunei Weather past 2 weeks in Bandar Seri Begawan, Brunei

Now
81 °F

Light rain. Partly cloudy.


Feels Like: 88 °F
Forecast: 77 / 88 °F
Wind: 3 mph from East

Location: Brunei Airport

Current Time: Aug 29, 2015 at 11:34:27 PM

Latest Report: Aug 29, 2015 at 11:00 PM


Visibility: N/A

Pressure: 29.86 "Hg

Humidity: 94%

Dew point: 79 °F

Location of Bandar Seri BegawanLocation

Historic Weather in Bandar Seri Begawan — Graph

°F

Bandar Seri Begawan temperature yesterday

Maximum temperature yesterday: 90 °F (at 11:30 AM)
Minimum temperature yesterday: 77 °F (at 3:30 AM)
Average temperature yesterday: 84 °F

Past Weeks' High & Low Weather Summary

 TemperatureHumidityPressure
High91 °F (Aug 19, 12:30 PM)100% (Aug 15, 4:30 AM)29.92 "Hg (Aug 15, 4:30 AM)
Low75 °F (Aug 15, 2:30 AM)52% (Aug 19, 12:30 PM)29.74 "Hg (Aug 29, 3:30 PM)
Average82 °F83%29.85 "Hg
* Reported Aug 14 10:00 PM — Aug 29 10:30 PM, Bandar Seri Begawan, Weather by CustomWeather, © 2015

Note: Actual official high and low records may vary slightly from our data, if they occured in-between our weather recording intervals... More about our weather records

Advertising

Bandar Seri Begawan weather history for previous 24 hours

 ConditionsComfort  
Time TempWeatherWind HumidityBarometerVisibility
10:30 PM
Sat, Aug 29
82 °FSprinkles. Partly cloudy.2 mph89%29.86 "HgN/A
10:00 PM84 °FSprinkles. Partly cloudy.1 mph84%29.89 "HgN/A
9:30 PM84 °FSprinkles. Partly cloudy.2 mph84%29.86 "HgN/A
9:00 PM84 °FPartly cloudy.1 mph84%29.86 "HgN/A
8:30 PM84 °FPartly cloudy.2 mph84%29.83 "HgN/A
8:00 PM84 °FPartly cloudy.2 mph79%29.83 "HgN/A
7:30 PM84 °FPassing clouds.2 mph79%29.80 "HgN/A
7:00 PM84 °FPassing clouds.2 mph79%29.80 "HgN/A
6:00 PM86 °FBroken clouds.7 mph75%29.77 "HgN/A
5:00 PM86 °FBroken clouds.8 mph79%29.77 "HgN/A
4:30 PM86 °FBroken clouds.8 mph79%29.74 "HgN/A
4:00 PM88 °FPartly sunny.9 mph75%29.74 "HgN/A
3:30 PM88 °FPartly sunny.9 mph75%29.74 "HgN/A
3:00 PM90 °FPartly sunny.6 mph71%29.77 "HgN/A
2:00 PM91 °FPartly sunny.7 mph63%29.77 "HgN/A
1:30 PM91 °FPartly sunny.9 mph59%29.80 "HgN/A
1:00 PM90 °FPartly sunny.6 mph63%29.83 "HgN/A
12:30 PM90 °FPartly sunny.6 mph67%29.83 "HgN/A
12:00 PM88 °FBroken clouds.3 mph70%29.86 "HgN/A
11:30 AM86 °FBroken clouds.6 mph75%29.89 "HgN/A
11:00 AM86 °FBroken clouds.7 mph75%29.92 "HgN/A
10:30 AM82 °FBroken clouds.5 mph84%29.92 "HgN/A
10:00 AM81 °FPartly sunny.7 mph89%29.92 "HgN/A
9:30 AM81 °FPartly sunny.8 mph89%29.92 "HgN/A
9:00 AM79 °FSprinkles. Broken clouds.8 mph94%29.92 "Hg5 mi
8:30 AM79 °FSprinkles. Broken clouds.13 mph94%29.92 "Hg1 mi
8:00 AM79 °FSprinkles. Broken clouds.12 mph94%29.89 "Hg3 mi
7:30 AM81 °FBroken clouds.7 mph89%29.89 "HgN/A
7:00 AM79 °FBroken clouds.5 mph94%29.86 "HgN/A
6:30 AM79 °FThunderstorms. Broken clouds.5 mph94%29.86 "HgN/A
6:00 AM79 °FThunderstorms. Partly cloudy.2 mph94%29.86 "HgN/A
5:30 AM79 °FPartly cloudy.5 mph94%29.83 "HgN/A
5:00 AM79 °FPassing clouds.1 mph94%29.83 "HgN/A
4:30 AM79 °FPassing clouds.2 mph94%29.83 "HgN/A
4:00 AM79 °FPassing clouds.2 mph94%29.83 "HgN/A
3:30 AM79 °FPassing clouds.2 mph94%29.83 "HgN/A
3:00 AM79 °FPassing clouds.3 mph94%29.83 "HgN/A
2:30 AM79 °FPassing clouds.1 mph94%29.83 "HgN/A
2:00 AM79 °FThunderstorms. Passing clouds.1 mph94%29.83 "HgN/A
1:00 AM81 °FThunderstorms. Partly cloudy.2 mph89%29.86 "HgN/A
12:30 AM81 °FThunderstorms. Partly cloudy.3 mph89%29.86 "HgN/A
12:00 AM81 °FThunderstorms. Partly cloudy.2 mph84%29.86 "HgN/A
11:30 PM
Fri, Aug 28
81 °FThunderstorms. Partly cloudy.2 mph84%29.86 "HgN/A
11:00 PM81 °FPartly cloudy.3 mph89%29.89 "HgN/A
Weather by CustomWeather, © 2015

See weather overviewHow to use our weather pages